Date,TemperatureHighF,TemperatureAvgF,TemperatureLowF,DewpointHighF,DewpointAvgF,DewpointLowF,HumidityHigh,HumidityAvg,HumidityLow,PressureMaxIn,PressureMinIn,WindSpeedMaxMPH,WindSpeedAvgMPH,GustSpeedMaxMPH,PrecipitationSumIn
2013-1-1,48.4,41.2,32.7,41.0,32.3,9.5,97,72,33,30.17,29.93,20,4,20,0.62
2013-1-2,40.1,34.4,31.1,38.7,32.0,28.4,98,91,74,30.24,29.96,15,5,15,0.62
2013-1-3,34.2,29.8,25.2,33.4,24.6,11.8,98,82,60,30.37,30.18,18,4,18,0.62
2013-1-4,34.9,26.2,22.8,14.4,11.1,6.8,69,53,40,30.45,30.28,21,8,21,0.62
2013-1-5,41.9,30.6,21.2,24.1,14.3,8.1,73,52,31,30.54,30.26,18,7,19,0.62
2013-1-6,40.5,33.7,29.3,34.2,27.0,21.0,98,77,63,30.31,30.10,21,5,21,0.62
2013-1-7,42.1,32.0,23.9,25.0,20.0,4.3,89,63,39,30.60,30.24,19,-5,19,0.62
2013-1-8,43.9,35.0,28.0,33.6,24.2,17.8,88,65,48,30.52,30.38,20,7,20,0.62
2013-1-9,56.8,47.7,36.5,50.5,43.6,33.3,98,87,61,30.51,30.37,13,3,13,0.62
2013-1-10,52.3,48.4,44.1,51.6,45.9,27.7,98,92,52,30.56,30.44,22,7,22,0.62
2013-1-11,55.4,46.2,39.6,54.9,45.1,27.7,98,96,52,30.46,30.14,24,7,24,0.62
2013-1-12,64.4,57.3,51.1,59.0,54.9,50.5,98,92,68,30.19,30.08,26,5,26,0.62
2013-1-13,58.8,55.0,52.5,57.7,54.3,52.0,98,97,92,30.17,30.05,23,10,26,0.62
2013-1-14,55.8,53.5,44.4,55.2,52.9,43.9,98,98,98,30.27,30.08,15,4,15,0.62
2013-1-15,51.6,43.1,37.6,51.1,42.5,37.0,98,98,98,30.24,30.08,15,6,15,0.62
2013-1-16,57.7,48.8,42.3,51.3,45.9,41.7,98,91,57,30.08,29.92,15,4,15,0.62
2013-1-17,47.1,38.6,25.9,46.6,38.0,25.3,98,98,98,30.29,29.90,16,-33,16,0.62
2013-1-18,36.3,26.5,21.4,25.2,19.4,11.5,98,75,51,30.64,30.29,19,6,19,0.62
2013-1-19,43.9,32.6,21.7,26.1,21.0,16.2,81,63,47,30.60,30.23,13,4,13,0.62
2013-1-20,45.3,37.1,32.0,25.2,21.2,11.1,67,53,34,30.24,30.09,20,6,20,0.62
2013-1-21,39.9,31.5,20.8,25.0,15.3,-0.8,79,52,34,30.20,29.98,20,6,23,0.62
2013-1-22,23.5,15.9,10.8,0.9,-5.4,-8.9,46,38,27,30.36,30.06,28,7,28,0.62
2013-1-23,35.4,23.8,14.2,21.4,5.8,-8.5,60,46,35,30.40,30.05,23,6,23,0.62
2013-1-24,35.1,24.1,12.9,24.3,6.6,-4.4,68,47,33,30.58,29.92,34,-6,34,0.62
2013-1-25,35.6,19.8,11.3,35.1,10.1,-4.9,98,68,47,30.59,30.04,28,11,28,0.00
2013-1-26,33.8,28.5,23.9,30.6,21.1,12.7,98,75,51,30.48,30.10,17,6,17,0.00
2013-1-27,31.5,25.4,21.6,25.9,22.1,19.0,98,88,67,30.63,30.48,16,6,16,0.00
2013-1-28,52.0,40.3,25.9,41.0,33.0,25.2,98,77,47,30.53,30.24,16,4,16,0.00
2013-1-29,61.2,53.2,45.1,53.1,43.2,36.0,98,71,47,30.30,30.06,23,7,23,0.00
2013-1-30,56.8,52.4,39.4,56.3,51.9,38.8,98,98,98,30.06,29.52,38,13,38,0.00
2013-1-31,39.6,27.1,22.3,38.8,17.0,10.8,98,66,51,30.06,29.56,26,7,26,0.00
2013-2-1,33.3,18.4,10.9,25.0,3.9,-4.0,91,53,36,30.49,29.92,30,6,30,0.00
2013-2-2,30.2,21.4,11.5,26.6,7.7,-6.2,95,57,37,30.49,30.06,17,6,17,0.00
2013-2-3,33.8,27.1,21.2,26.4,18.9,12.4,89,71,55,30.09,29.86,33,1,33,0.00
2013-2-4,43.0,29.3,16.9,19.8,15.0,9.7,84,57,36,30.24,29.96,25,6,25,0.04
2013-2-5,50.0,39.1,34.5,29.3,21.2,14.4,61,49,36,30.04,29.88,21,4,21,0.00
2013-2-6,52.7,38.7,32.4,28.9,18.6,7.9,67,46,21,30.36,29.99,17,4,17,0.00
2013-2-7,37.4,35.1,33.1,35.2,24.8,14.2,98,69,40,30.36,30.08,12,6,12,0.17
2013-2-8,45.3,35.9,26.6,40.6,30.5,18.5,98,82,42,30.17,29.88,21,6,21,0.41
2013-2-9,54.0,34.6,25.0,20.3,10.5,4.6,77,39,20,30.42,30.15,19,6,19,0.00
2013-2-10,43.3,36.4,31.3,40.1,17.4,8.8,98,49,31,30.48,30.16,32,14,32,0.00
2013-2-11,56.8,47.1,40.6,54.7,36.6,13.6,98,72,30,30.16,29.97,29,8,29,0.21
2013-2-12,42.4,35.6,32.5,30.4,18.0,13.6,89,50,34,30.17,30.02,24,-3,24,0.00
2013-2-13,43.2,34.5,28.9,42.6,32.8,25.0,98,94,81,30.02,29.63,23,7,23,0.21
2013-2-14,49.5,33.8,23.2,25.5,21.1,15.6,85,61,37,30.14,29.92,18,6,19,0.21
2013-2-15,52.3,37.0,27.0,32.7,26.0,18.7,98,67,30,30.18,29.94,19,4,19,0.21
2013-2-16,31.6,23.5,15.4,23.0,14.6,-0.2,85,69,47,30.09,29.86,23,7,23,0.21
2013-2-17,26.6,18.1,11.1,2.8,-0.4,-3.1,57,44,34,30.33,30.06,24,10,24,0.21
2013-2-18,46.8,32.2,20.8,17.2,11.1,-0.9,51,41,30,30.42,30.21,29,9,29,0.21
2013-2-19,47.7,34.5,26.6,36.1,19.7,1.8,98,58,34,30.24,29.83,37,10,37,0.21
2013-2-20,38.3,28.0,22.3,5.7,0.4,-5.6,45,31,19,30.22,30.05,28,10,28,0.21
2013-2-21,58.5,35.0,21.2,27.7,7.0,-5.6,82,33,15,30.33,29.99,19,7,19,0.21
2013-2-22,35.8,30.6,28.4,35.2,29.9,27.9,98,98,83,30.34,30.17,11,0,11,0.21
2013-2-23,49.6,42.9,30.0,48.4,41.8,29.5,98,96,83,30.19,29.85,9,2,9,0.21
2013-2-24,50.2,38.8,32.9,38.7,21.3,12.7,98,52,27,30.12,29.87,18,6,18,0.21
2013-2-25,37.9,30.9,26.8,19.9,16.2,12.4,70,55,41,30.24,30.09,18,9,18,0.21
2013-2-26,34.7,31.2,24.4,34.2,29.8,15.8,98,95,64,30.18,29.64,17,2,17,0.21
2013-2-27,52.0,35.6,29.5,33.1,26.4,20.3,98,71,38,29.87,29.66,23,4,23,0.21
2013-2-28,31.8,27.1,24.3,23.7,18.7,15.6,87,70,57,29.96,29.79,20,6,20,0.21
2013-3-1,35.2,28.2,24.4,22.6,20.6,17.6,89,74,51,30.00,29.87,19,4,19,0.21
2013-3-2,33.6,26.6,18.3,23.2,17.4,8.6,85,68,52,30.02,29.86,22,5,22,0.21
2013-3-3,29.7,20.2,15.3,10.2,7.2,3.9,74,57,41,30.09,29.95,25,9,25,0.21
2013-3-4,47.5,29.3,16.9,14.5,6.7,2.1,64,41,17,30.22,30.01,22,6,22,0.21
2013-3-5,40.5,36.8,28.2,39.9,26.7,9.9,98,71,32,30.10,29.65,19,3,19,0.21
2013-3-6,28.2,23.3,19.9,22.1,16.6,11.5,93,76,57,30.22,29.67,40,12,40,0.21
2013-3-7,38.5,25.3,21.6,20.8,18.7,15.4,93,77,47,30.39,30.18,20,10,20,0.21
2013-3-8,43.5,29.0,20.7,19.6,15.4,9.5,80,58,35,30.45,30.24,18,8,18,0.21
2013-3-9,60.1,41.9,27.7,24.3,17.0,10.8,69,37,25,30.45,30.18,16,6,16,0.21
2013-3-10,59.5,46.3,38.5,26.8,22.4,18.7,48,39,27,30.34,30.12,24,13,27,0.21
2013-3-11,47.1,42.4,39.4,46.6,38.8,25.0,98,89,45,30.21,29.88,33,14,33,0.21
2013-3-12,47.3,40.1,33.6,46.8,32.9,18.3,98,78,44,30.09,29.78,20,7,20,0.21
2013-3-13,36.7,30.0,21.2,25.5,14.9,6.1,72,54,35,30.23,30.06,23,6,23,0.21
2013-3-14,44.2,26.7,17.1,13.1,7.2,3.4,64,45,25,30.37,30.17,21,7,21,0.21
2013-3-15,60.1,42.7,27.9,34.0,21.2,7.7,78,44,24,30.27,29.89,19,5,19,0.21
2013-3-16,73.6,58.0,51.4,41.5,35.9,32.7,61,45,25,29.94,29.67,22,4,22,0.21
2013-3-17,61.3,51.2,35.1,45.7,41.0,34.5,98,70,48,30.20,29.91,17,5,17,0.21
2013-3-18,43.7,34.0,29.5,43.0,33.5,28.9,98,98,98,30.22,29.90,16,3,16,0.21
2013-3-19,52.2,40.5,32.5,45.5,22.5,1.2,98,55,21,30.16,29.85,18,6,18,0.21
2013-3-20,50.7,34.6,25.0,25.2,4.0,-3.6,89,29,16,30.20,29.85,18,5,18,0.21
2013-3-21,33.3,21.6,14.5,17.2,3.2,-0.0,73,45,32,30.09,29.85,20,7,20,0.21
2013-3-22,50.0,29.1,16.7,24.1,7.5,1.8,66,41,26,30.16,29.88,19,4,19,0.21
2013-3-23,50.9,39.2,32.5,32.2,27.3,20.1,77,63,43,30.11,29.88,17,3,17,0.21
2013-3-24,39.0,34.1,29.5,37.2,32.2,27.0,98,93,64,29.99,29.60,18,5,18,0.00
2013-3-25,34.2,26.6,22.5,29.1,20.7,14.7,98,79,51,29.95,29.61,0,0,0,0.00
2013-3-26,38.1,26.2,22.1,19.8,16.1,13.1,78,66,43,30.24,29.88,0,0,0,0.00
2013-3-27,39.6,27.6,22.1,18.9,14.0,9.9,79,58,37,30.33,30.21,15,3,15,0.00
2013-3-28,47.5,31.4,23.4,17.6,12.4,9.1,57,46,29,30.42,30.19,17,6,17,0.00
2013-3-29,49.5,34.2,27.9,18.5,13.6,11.1,52,43,24,30.44,30.23,11,5,11,0.00
2013-4-5,50.2,44.9,40.5,28.2,26.4,22.5,61,48,40,30.20,30.02,15,-33,15,0.00
2013-4-6,63.7,48.6,37.9,30.6,23.8,19.8,49,38,25,30.35,30.15,21,7,21,0.34
2013-4-7,67.6,50.1,37.0,36.0,31.7,24.4,77,51,28,30.38,30.09,23,10,23,0.00
2013-4-8,70.9,56.4,45.1,43.5,38.2,32.7,67,51,34,30.28,30.06,25,7,25,0.00
2013-4-9,79.9,62.6,50.4,46.8,42.3,38.8,71,50,24,30.32,30.08,24,6,24,0.00
2013-4-10,83.1,65.7,53.2,47.5,44.7,39.6,77,50,23,30.24,29.97,20,6,20,0.00
2013-4-11,72.5,61.0,52.7,59.0,49.3,42.4,98,68,36,30.11,29.81,36,6,36,0.00
2013-4-12,70.5,56.1,45.9,59.5,44.6,25.9,98,70,27,30.02,29.70,34,7,36,0.00
2013-4-13,67.1,51.4,42.6,30.0,25.3,15.3,58,38,16,30.20,29.92,24,-28,24,0.00
2013-4-14,65.8,54.6,45.5,45.0,28.5,19.9,88,38,25,30.22,30.06,29,-256,29,0.00
2013-4-15,53.1,49.5,46.6,52.5,48.9,45.3,98,98,89,30.37,30.11,19,-92,19,0.00
2013-4-16,75.4,59.5,50.2,61.7,52.3,49.1,98,80,43,30.40,30.19,17,2,17,0.00
2013-4-17,68.2,58.9,54.5,58.3,54.0,51.3,98,85,59,30.38,30.18,14,-116,14,0.00
2013-4-18,68.4,59.7,55.2,58.1,53.6,45.5,98,82,47,30.27,30.05,31,10,31,0.00
2013-4-19,59.0,53.8,37.6,58.5,52.8,31.1,98,96,77,30.06,29.81,38,-42,38,0.00
2013-4-20,58.5,41.1,30.4,31.1,21.2,16.7,78,47,25,30.50,30.02,25,-162,25,0.00
2013-4-21,62.2,44.8,34.2,27.9,22.6,15.6,58,42,26,30.60,30.36,20,-252,20,0.00
2013-4-22,63.0,45.3,35.1,32.9,27.5,18.3,86,53,26,30.58,30.26,16,5,16,0.00
2013-4-23,70.3,49.9,34.5,40.6,32.2,18.0,76,53,29,30.48,30.10,18,-92,18,0.00
2013-4-24,70.3,54.3,44.6,54.0,45.0,38.7,93,73,43,30.26,30.01,23,-128,23,0.00
2013-4-25,68.4,48.5,33.6,42.1,24.7,7.2,89,49,12,30.46,30.21,12,-467,14,0.00
2013-4-26,66.6,51.2,40.5,29.1,24.5,18.9,46,36,24,30.54,30.33,21,-284,21,0.00
2013-4-27,57.4,48.8,46.0,46.6,38.9,26.1,98,71,39,30.52,30.36,19,-27,19,0.00
2013-4-28,49.5,45.9,43.0,48.9,44.7,36.9,98,96,76,30.38,30.15,30,-7,30,0.00
2013-4-29,63.9,53.7,47.3,58.3,50.8,46.8,98,90,70,30.21,30.04,10,4,10,0.00
2013-4-30,71.6,56.6,52.5,59.5,52.6,45.7,98,89,43,30.33,30.06,15,4,15,0.00
2013-5-1,57.7,52.3,48.9,53.1,49.2,45.0,98,90,66,30.43,30.30,17,4,17,0.00
2013-5-2,53.1,49.4,46.6,52.3,48.8,46.0,98,98,98,30.45,30.35,19,2,19,0.00
2013-5-3,55.4,49.1,45.0,50.7,44.7,39.9,98,86,61,30.40,30.23,19,7,19,0.00
2013-5-4,48.0,42.5,37.8,44.1,39.4,32.9,98,89,70,30.29,30.14,22,8,22,0.00
2013-5-5,47.8,43.2,39.2,47.3,42.6,38.7,98,98,98,30.21,29.98,23,-564,23,0.00
2013-5-6,57.6,49.1,43.0,56.7,46.1,36.0,98,91,49,30.08,29.89,24,-748,24,0.00
2013-5-7,57.2,47.6,42.8,49.3,43.4,39.0,98,86,53,30.09,29.95,6,-881,6,0.00
2013-5-8,62.4,52.1,45.7,48.9,45.9,41.2,98,81,49,30.17,29.99,10,-988,10,0.00
2013-5-9,77.7,59.0,46.9,49.8,43.1,32.4,98,61,22,30.27,30.03,9,-661,9,0.13
2013-5-10,74.1,61.9,54.0,54.5,46.3,37.8,89,59,35,30.26,30.00,23,-408,23,0.13
2013-5-11,68.4,59.0,52.9,53.8,48.7,43.0,88,69,46,30.10,29.89,13,-611,13,0.12
2013-5-12,63.1,50.7,42.1,43.5,30.0,19.2,82,48,24,30.21,29.94,17,-789,17,0.00
2013-5-13,63.0,46.9,36.1,23.0,19.3,13.1,52,35,16,30.35,30.09,10,-776,10,0.00
2013-5-14,71.1,53.5,37.0,36.1,27.0,17.4,51,37,20,30.40,30.08,18,-438,18,0.00
2013-5-15,87.8,68.9,53.2,46.0,39.6,30.9,61,37,16,30.19,29.94,20,-427,20,0.00
2013-5-16,78.1,65.4,58.5,43.5,38.8,31.8,46,38,23,30.19,30.01,16,-636,16,0.00
2013-5-17,79.5,64.8,56.3,57.0,47.5,37.0,90,56,33,30.25,30.07,15,-407,15,0.37
2013-5-18,59.2,58.2,56.7,58.3,56.5,52.3,98,94,81,30.27,30.16,17,-206,17,0.50
2013-5-19,62.6,59.8,57.4,62.1,59.3,56.8,98,98,98,30.23,30.12,11,-469,11,0.17
2013-5-20,79.0,63.6,56.8,63.3,59.1,51.1,98,87,40,30.26,30.04,9,-731,9,0.12
2013-5-21,83.3,67.3,58.1,66.0,57.5,48.7,98,75,36,30.19,29.94,12,-461,12,0.46
2013-5-22,73.6,62.0,56.5,65.3,56.4,49.3,98,83,53,30.19,29.95,15,-455,15,1.41
2013-5-23,81.7,62.9,55.9,63.3,51.3,37.8,98,72,25,30.10,29.81,13,-276,13,0.04
2013-5-24,61.2,51.7,43.7,48.6,36.3,23.9,93,59,27,30.38,29.97,13,-279,13,0.00
2013-5-25,74.8,54.6,41.7,31.8,25.9,18.1,57,36,13,30.43,30.17,13,-438,13,0.00
2013-5-26,78.1,58.3,46.0,37.4,32.4,25.2,60,40,20,30.41,30.14,9,-193,9,0.00
2013-5-27,77.7,62.1,50.7,49.8,43.9,36.3,68,53,31,30.40,30.15,17,-356,17,0.00
2013-5-28,77.9,64.7,55.6,59.0,51.8,47.5,84,64,45,30.32,30.19,19,-94,19,0.00
2013-5-29,82.6,67.3,56.1,59.0,52.6,44.4,91,63,31,30.34,30.16,17,-32,17,0.00
2013-5-30,81.7,66.7,56.8,60.3,53.0,47.3,91,64,33,30.40,30.18,16,-318,16,0.00
2013-5-31,79.7,66.6,57.9,58.8,52.6,45.0,84,62,33,30.34,30.13,17,-108,17,0.00
2013-6-1,80.1,66.7,58.8,63.3,55.4,47.7,98,70,34,30.26,30.03,22,-10,22,0.00
2013-6-2,66.7,62.5,60.1,64.4,59.8,54.9,98,91,72,30.15,30.03,19,-16,19,0.25
2013-6-3,81.7,65.9,58.6,61.2,53.7,43.7,98,70,29,30.14,29.85,12,-64,12,0.00
2013-6-4,60.1,58.6,57.2,57.2,54.1,51.8,91,85,76,30.19,30.08,0,-983,0,0.04
2013-6-21,83.8,72.3,59.7,54.3,51.0,47.8,80,50,31,30.41,30.20,11,-39,11,0.04
2013-6-22,86.0,67.7,54.9,54.0,50.7,45.7,85,59,27,30.41,30.12,12,-10,12,0.00
2013-6-23,86.0,68.7,60.1,61.5,56.0,49.6,90,67,33,30.35,30.14,12,-93,12,0.00
2013-6-24,82.0,66.9,60.1,66.9,60.0,55.4,93,80,47,30.35,30.12,10,-233,10,0.42
2013-6-25,82.6,67.6,61.0,70.0,61.4,56.3,98,82,48,30.30,30.11,10,-436,10,0.04
2013-6-26,87.6,69.6,60.8,64.6,59.8,50.9,98,75,31,30.19,29.94,9,-221,9,0.00
2013-6-27,80.8,69.0,62.2,64.0,57.9,48.6,89,68,49,30.08,29.80,12,-305,12,0.08
2013-6-28,84.2,69.4,63.1,66.7,57.3,48.7,83,68,32,29.93,29.71,11,-463,11,0.08
2013-6-29,81.7,67.7,60.6,60.3,51.2,38.8,88,59,32,29.86,29.65,8,-113,8,0.00
2013-6-30,82.0,66.3,58.5,60.3,54.6,48.4,95,68,39,30.01,29.76,15,-380,15,0.67
2013-7-1,69.3,63.0,59.9,68.7,62.0,58.5,98,96,83,30.10,29.94,19,-305,19,2.36
2013-7-2,65.5,62.4,60.4,64.6,61.8,59.9,98,98,96,30.28,30.07,18,-196,18,2.36
2013-7-3,70.2,63.4,57.9,69.3,62.8,57.4,98,98,98,30.36,30.22,26,-64,26,2.36
2013-7-4,64.8,62.0,58.6,64.2,61.5,58.1,98,98,98,30.39,30.30,13,-52,13,2.36
2013-8-3,82.6,72.8,65.5,58.1,51.9,45.0,73,50,31,30.15,30.01,7,-149,7,0.04
2013-8-4,81.0,68.3,61.7,61.3,51.9,37.6,91,59,22,30.23,29.99,9,-150,9,0.04
2013-8-5,77.4,65.8,58.8,61.0,52.2,46.2,90,63,39,30.22,30.04,15,-10,15,0.46
2013-8-6,72.0,65.4,62.4,65.3,61.5,57.9,98,88,67,30.18,30.08,13,-6,13,0.00
2013-8-7,66.0,64.7,63.0,65.5,64.2,62.4,98,98,98,30.20,30.12,16,-105,16,0.21
2013-8-8,70.3,66.9,63.9,69.8,66.1,63.3,98,97,93,30.19,30.13,13,-306,17,0.04
2013-8-9,82.4,69.4,64.4,66.9,62.4,56.3,97,80,47,30.23,30.07,13,-363,13,0.20
2013-8-10,87.3,68.9,62.4,64.4,59.3,50.2,91,74,31,30.29,30.08,10,-212,10,0.75
2013-8-11,86.5,69.1,61.5,65.1,58.0,48.6,97,72,30,30.28,30.08,8,-149,8,0.75
2013-8-12,86.2,70.5,64.4,61.2,56.5,48.0,87,64,31,30.23,30.02,9,-103,9,0.54
2013-8-13,78.8,66.9,61.9,61.7,56.9,49.3,87,72,46,30.14,29.91,8,-330,10,0.00
2013-8-14,75.0,62.1,55.8,54.9,46.3,38.8,81,59,32,30.25,30.02,10,-347,10,0.00
2013-8-15,66.4,56.2,52.2,47.1,42.6,38.8,71,61,40,30.32,30.18,10,-351,10,0.00
2013-8-16,74.5,59.1,51.4,48.9,43.7,38.8,77,59,31,30.34,30.11,14,-143,14,0.00
2013-8-17,62.4,57.3,51.6,54.3,48.1,40.6,87,72,51,30.34,30.25,11,-14,11,0.25
2013-8-18,66.9,61.3,57.9,61.9,57.1,54.1,92,86,73,30.34,30.24,11,3,11,1.82
2013-8-19,65.5,62.3,60.4,64.0,60.9,58.8,98,95,90,30.33,30.20,10,-121,10,0.38
2013-8-20,74.3,65.2,58.6,67.5,59.0,51.6,98,82,49,30.32,30.20,11,-441,11,1.82
2013-8-21,72.0,65.2,61.2,62.2,58.9,55.2,91,81,58,30.38,30.25,11,-277,11,0.04
2013-8-22,83.8,68.5,61.3,63.1,54.9,45.0,96,66,31,30.33,30.09,7,-16,7,0.04
2013-8-23,76.3,66.7,62.4,56.7,53.2,48.7,79,63,42,30.22,30.08,6,-123,6,0.04
2013-8-24,77.9,64.1,57.0,56.8,45.1,33.4,83,55,21,30.50,30.22,14,-202,14,0.04
2013-8-25,77.0,62.3,54.7,48.4,41.2,35.2,72,48,24,30.55,30.32,13,-72,13,0.04
2013-8-26,83.7,63.9,53.2,53.8,45.7,38.3,83,55,21,30.50,30.17,6,-409,6,0.04
2013-8-27,77.9,67.3,61.3,55.6,50.9,45.3,73,57,34,30.29,30.10,7,-245,7,0.04
2013-8-28,86.0,70.4,64.2,58.1,52.9,46.0,79,56,28,30.17,29.99,14,-378,14,0.04
2013-8-29,89.1,72.5,67.3,57.2,51.1,43.0,69,49,21,30.15,29.93,12,-426,12,0.04
2013-8-30,74.3,66.4,63.1,67.5,59.5,52.3,92,79,49,30.22,30.04,13,-330,13,0.04
2013-8-31,77.5,68.0,63.5,65.7,58.2,50.5,93,72,40,30.10,29.95,11,-401,11,0.04
2013-9-1,76.5,67.4,62.6,61.5,55.3,47.1,82,66,39,30.04,29.90,11,-345,11,0.04
2013-9-2,83.5,68.9,62.8,59.9,52.8,45.9,87,59,30,30.04,29.88,9,-275,9,0.04
2013-9-3,81.3,67.5,60.1,58.1,47.2,31.1,80,50,24,30.18,29.90,10,-439,10,0.04
2013-9-4,81.1,64.5,56.8,48.9,46.6,43.3,70,54,29,30.30,30.09,10,-383,10,0.04
2013-9-5,83.5,64.8,55.9,50.5,42.5,34.3,70,47,20,30.30,30.10,6,-498,6,0.04
2013-9-6,77.0,63.6,58.1,51.8,46.0,41.2,73,54,31,30.34,30.15,13,-197,13,0.04
2013-9-7,78.6,63.7,56.7,51.4,48.3,42.3,77,60,32,30.29,30.07,10,-201,10,0.04
2013-9-8,79.9,66.7,59.9,55.8,49.7,41.4,74,56,28,30.18,29.99,6,-405,6,0.04
2013-9-9,79.3,67.0,61.0,54.0,50.5,45.1,72,57,32,30.31,30.15,13,-202,13,0.04
2013-9-10,82.2,68.9,61.0,54.1,49.4,44.2,74,52,30,30.36,30.21,13,-243,13,0.04
2013-9-11,83.8,68.2,61.9,57.0,50.9,43.5,78,56,29,30.37,30.16,10,-401,10,0.04
2013-9-12,81.9,67.5,60.3,62.1,54.7,43.5,90,66,33,30.25,29.93,9,-564,9,0.04
2013-9-13,72.5,60.8,50.7,54.5,39.8,29.5,78,48,23,30.11,29.88,11,-414,11,0.04
2013-9-14,71.2,54.5,44.6,39.6,33.6,28.8,61,46,24,30.31,30.06,13,-166,13,0.04
2013-9-15,71.1,58.3,51.8,48.4,42.6,38.1,70,57,33,30.35,30.23,15,-19,15,0.04
2013-9-16,76.5,61.4,55.2,47.3,42.8,34.5,70,52,24,30.33,30.12,7,-362,7,0.04
2013-9-17,59.4,55.6,52.5,45.5,38.8,32.5,70,54,37,30.45,30.33,13,-255,13,0.04
2013-9-18,60.4,53.5,48.7,50.5,43.8,36.9,84,70,50,30.44,30.29,10,-153,10,0.04
2013-9-19,69.8,60.7,55.6,55.4,50.5,44.8,85,70,44,30.34,30.17,8,-398,8,0.04
2013-9-20,75.6,64.6,58.1,57.4,50.8,43.5,86,63,35,30.24,30.01,11,-211,11,0.04
2013-9-21,62.8,59.7,54.5,60.6,58.1,53.6,98,95,82,30.06,29.83,28,-221,28,0.04
2013-9-22,70.2,55.3,48.6,53.6,41.5,32.2,97,63,26,30.11,29.86,8,-443,8,0.04
2013-9-23,68.9,54.6,48.6,46.4,39.9,35.1,74,59,32,30.22,30.04,11,-302,11,0.04
2013-9-24,72.0,58.5,50.0,47.3,42.7,37.8,75,57,32,30.23,29.99,11,-238,11,0.04
2013-9-25,56.8,55.3,53.1,53.2,50.2,47.3,88,83,72,30.10,30.00,10,-123,10,0.04
2013-9-26,68.2,56.2,51.3,50.7,41.6,30.4,84,61,29,30.23,30.01,9,-286,9,0.04
2013-9-27,73.0,56.9,48.4,41.7,38.0,33.4,68,51,25,30.35,30.11,11,3,11,0.04
2013-9-28,66.9,55.2,49.3,42.6,38.9,33.8,71,55,33,30.39,30.22,12,5,12,0.04
2013-9-29,68.4,54.6,46.8,45.9,37.8,33.4,71,54,32,30.35,30.08,11,4,11,0.04
2013-9-30,66.6,56.6,51.3,47.1,40.7,35.6,74,57,34,30.26,30.09,13,-5,13,0.22
2013-10-1,74.3,58.5,50.7,47.7,40.0,33.1,72,52,25,30.29,30.10,9,-2,9,0.00
2013-10-2,78.3,60.4,53.1,45.1,40.0,32.0,73,50,21,30.30,30.11,6,2,6,0.00
2013-10-3,74.5,62.3,56.7,44.4,40.6,37.0,58,46,30,30.29,30.14,12,3,12,0.00
2013-10-4,77.2,62.6,56.1,49.5,42.6,36.3,73,49,25,30.28,30.15,6,2,6,0.00
2013-10-5,79.5,64.9,56.8,50.2,43.0,35.1,67,47,21,30.30,30.10,13,4,13,0.00
2013-10-6,72.7,63.9,59.5,49.1,43.4,37.6,61,48,32,30.19,29.99,20,9,20,0.00
2013-10-7,61.7,55.5,48.2,53.8,42.3,30.0,82,62,38,30.20,29.92,13,4,13,1.29
2013-10-8,66.6,49.2,41.2,31.6,28.3,23.9,66,46,23,30.41,30.16,13,-7,13,0.00
2013-10-9,72.0,50.7,41.7,29.7,24.0,18.0,53,37,14,30.41,30.12,10,-1,10,0.00
2013-10-15,52.3,52.2,52.2,34.7,34.5,34.3,51,50,50,30.20,30.20,6,-497,6,0.00
2013-10-16,66.2,55.0,47.8,43.5,36.9,32.2,66,51,34,30.20,29.99,11,-58,11,0.00
2013-10-17,59.5,56.5,51.6,53.1,45.6,38.1,79,67,54,30.09,29.91,12,-395,12,0.00
2013-10-18,61.2,50.9,42.3,42.8,34.2,28.9,73,54,31,30.16,30.00,11,-427,11,0.00
2013-10-19,57.6,51.5,45.9,46.8,36.9,20.8,80,61,27,30.08,29.89,13,-290,13,0.00
2013-10-20,60.6,44.9,35.2,23.9,19.4,11.5,55,37,17,30.24,30.00,13,-460,13,0.00
2013-10-21,44.2,43.9,43.3,25.9,23.8,21.2,48,45,41,30.21,30.20,9,-49,9,0.00